Powrót do katalogu

ARIANE 3 DEB *

AktywnyHEO
NORAD 17254·DEBRIS·🇫🇷 France

Wystrzelony Mar 28, 1986 z Guiana Space Centre

Loading…

Następne Przeloty (najbliższe 24 godziny)

TLE

ŚwieżeSource: Space-Track

Epoka: Sep 13, 2026, 22:45 UTC

1 17254U 86026F   26256.94823448  .00000140  00000-0  87502-3 0  9994
2 17254   8.3885 166.4144 6652368 228.1533  52.2315  2.95862888347120

Śledź ARIANE 3 DEB * w czasie rzeczywistym z AllMySat

Download on the App Store